• en Suisse
  • Liste des pays
  • À 7 jours
  • Température de l'eau
  • Carte satellitaire
  • Carte météo
  • Widgets météo
  • user-avatar
    Se connecter

    Météo par heure à Serhiivka

    Ce jour, 24 Septembre, Lundi

    Heure Température Précipitation Vent Pression Humidité
    00:00 +9°C° 0 mm 2 m/s 750 mmHg 83%
    01:00 +9°C° 0 mm 2 m/s 751 mmHg 83%
    02:00 +9°C° 0 mm 2 m/s 751 mmHg 83%
    03:00 +9°C° 0 mm 2 m/s 750 mmHg 84%
    04:00 +8°C° 0 mm 2 m/s 750 mmHg 84%
    05:00 +9°C° 0 mm 1 m/s 750 mmHg 85%
    06:00 +9°C° 0 mm 1 m/s 751 mmHg 85%
    07:00 +10°C° 0 mm 2 m/s 750 mmHg 79%
    08:00 +11°C° 0 mm 3 m/s 750 mmHg 72%
    09:00 +13°C° 0 mm 3 m/s 750 mmHg 64%
    10:00 +15°C° 0 mm 4 m/s 750 mmHg 58%
    11:00 +16°C° 0 mm 5 m/s 749 mmHg 51%
    12:00 +17°C° 0 mm 5 m/s 749 mmHg 45%
    13:00 +19°C° 0 mm 6 m/s 748 mmHg 41%
    14:00 +20°C° 0 mm 7 m/s 747 mmHg 38%
    15:00 +20°C° 0 mm 7 m/s 747 mmHg 37%
    16:00 +18°C° 0 mm 7 m/s 746 mmHg 39%
    17:00 +19°C° 0 mm 6 m/s 745 mmHg 40%
    18:00 +19°C° 0 mm 6 m/s 745 mmHg 41%
    19:00 +17°C° 0.2 mm 6 m/s 744 mmHg 45%
    20:00 +16°C° 0.2 mm 6 m/s 744 mmHg 49%
    21:00 +16°C° 0.2 mm 6 m/s 743 mmHg 54%
    22:00 +16°C° 0.4 mm 6 m/s 743 mmHg 61%
    23:00 +16°C° 0.4 mm 6 m/s 743 mmHg 69%

    Demain, 25 Septembre, Mardi

    Heure Température Précipitation Vent Pression Humidité
    00:00 +16°C° 0.4 mm 6 m/s 743 mmHg 76%
    01:00 +15°C° 0.6 mm 6 m/s 743 mmHg 78%
    02:00 +14°C° 0.6 mm 6 m/s 743 mmHg 81%
    03:00 +11°C° 0.6 mm 6 m/s 743 mmHg 83%
    04:00 +11°C° 1 mm 6 m/s 743 mmHg 83%
    05:00 +10°C° 1 mm 6 m/s 744 mmHg 84%
    06:00 +9°C° 1 mm 5 m/s 744 mmHg 84%
    07:00 +10°C° 0.6 mm 5 m/s 745 mmHg 81%
    08:00 +10°C° 0.6 mm 5 m/s 745 mmHg 78%
    09:00 +10°C° 0.6 mm 5 m/s 746 mmHg 74%
    10:00 +12°C° 0 mm 5 m/s 746 mmHg 68%
    11:00 +13°C° 0 mm 5 m/s 746 mmHg 61%
    12:00 +15°C° 0 mm 5 m/s 747 mmHg 54%
    13:00 +15°C° 0.1 mm 5 m/s 747 mmHg 52%
    14:00 +15°C° 0.1 mm 5 m/s 747 mmHg 50%
    15:00 +15°C° 0.1 mm 5 m/s 747 mmHg 48%
    16:00 +14°C° 0.2 mm 5 m/s 747 mmHg 53%
    17:00 +13°C° 0.2 mm 5 m/s 748 mmHg 58%
    18:00 +12°C° 0.2 mm 4 m/s 748 mmHg 63%
    19:00 +11°C° 0.1 mm 4 m/s 749 mmHg 67%
    20:00 +11°C° 0.1 mm 3 m/s 749 mmHg 71%
    21:00 +10°C° 0.1 mm 3 m/s 750 mmHg 75%
    22:00 +9°C° 0 mm 3 m/s 750 mmHg 78%
    23:00 +9°C° 0 mm 3 m/s 751 mmHg 80%

    Après-demain, 26 Septembre, Mercredi

    Heure Température Précipitation Vent Pression Humidité
    00:00 +8°C° 0 mm 3 m/s 751 mmHg 82%
    01:00 +8°C° 0 mm 3 m/s 752 mmHg 81%
    02:00 +8°C° 0 mm 3 m/s 752 mmHg 81%
    03:00 +8°C° 0 mm 3 m/s 753 mmHg 80%
    04:00 +8°C° 0 mm 3 m/s 753 mmHg 79%
    05:00 +7°C° 0 mm 3 m/s 754 mmHg 79%
    06:00 +6°C° 0 mm 4 m/s 754 mmHg 78%
    07:00 +6°C° 0 mm 4 m/s 755 mmHg 72%
    08:00 +7°C° 0 mm 4 m/s 755 mmHg 66%
    09:00 +8°C° 0 mm 4 m/s 756 mmHg 60%
    10:00 +10°C° 0 mm 4 m/s 756 mmHg 56%
    11:00 +11°C° 0 mm 4 m/s 756 mmHg 52%
    12:00 +11°C° 0 mm 3 m/s 756 mmHg 48%
    13:00 +12°C° 0 mm 3 m/s 756 mmHg 46%
    14:00 +12°C° 0 mm 3 m/s 757 mmHg 45%
    15:00 +12°C° 0 mm 3 m/s 757 mmHg 44%
    16:00 +12°C° 0 mm 3 m/s 757 mmHg 46%
    17:00 +12°C° 0 mm 2 m/s 757 mmHg 47%
    18:00 +12°C° 0 mm 2 m/s 757 mmHg 48%
    19:00 +10°C° 0 mm 2 m/s 757 mmHg 51%
    20:00 +9°C° 0 mm 2 m/s 758 mmHg 54%
    21:00 +9°C° 0 mm 2 m/s 758 mmHg 57%
    22:00 +8°C° 0 mm 2 m/s 758 mmHg 61%
    23:00 +7°C° 0 mm 2 m/s 758 mmHg 65%

    27 Septembre, Jeudi

    Heure Température Précipitation Vent Pression Humidité
    00:00 +7°C° 0 mm 2 m/s 758 mmHg 69%
    01:00 +6°C° 0 mm 2 m/s 758 mmHg 72%
    02:00 +6°C° 0 mm 2 m/s 758 mmHg 74%
    03:00 +6°C° 0 mm 2 m/s 758 mmHg 77%
    04:00 +5°C° 0 mm 2 m/s 758 mmHg 77%
    05:00 +5°C° 0 mm 2 m/s 758 mmHg 78%
    06:00 +5°C° 0 mm 2 m/s 757 mmHg 79%
    07:00 +5°C° 0 mm 3 m/s 757 mmHg 70%
    08:00 +6°C° 0 mm 4 m/s 757 mmHg 60%
    09:00 +8°C° 0 mm 5 m/s 757 mmHg 51%
    10:00 +9°C° 0 mm 6 m/s 757 mmHg 46%
    11:00 +10°C° 0 mm 7 m/s 756 mmHg 40%
    12:00 +12°C° 0 mm 7 m/s 756 mmHg 35%
    13:00 +12°C° 0 mm 8 m/s 755 mmHg 34%
    14:00 +13°C° 0 mm 8 m/s 754 mmHg 33%
    15:00 +13°C° 0 mm 8 m/s 754 mmHg 33%
    16:00 +14°C° 0 mm 7 m/s 754 mmHg 36%
    17:00 +14°C° 0 mm 6 m/s 753 mmHg 39%
    18:00 +13°C° 0 mm 5 m/s 753 mmHg 42%
    19:00 +13°C° 0 mm 5 m/s 753 mmHg 44%
    20:00 +13°C° 0 mm 5 m/s 753 mmHg 46%
    21:00 +13°C° 0 mm 5 m/s 753 mmHg 48%
    22:00 +12°C° 0 mm 5 m/s 753 mmHg 51%
    23:00 +12°C° 0 mm 4 m/s 753 mmHg 54%

    28 Septembre, Vendredi

    Heure Température Précipitation Vent Pression Humidité
    00:00 +11°C° 0 mm 4 m/s 753 mmHg 58%
    01:00 +11°C° 0 mm 4 m/s 753 mmHg 61%
    02:00 +10°C° 0 mm 3 m/s 753 mmHg 64%
    03:00 +10°C° 0 mm 3 m/s 753 mmHg 68%
    04:00 +9°C° 0 mm 3 m/s 753 mmHg 71%
    05:00 +9°C° 0 mm 3 m/s 753 mmHg 74%
    06:00 +8°C° 0 mm 3 m/s 753 mmHg 77%
    07:00 +10°C° 0 mm 3 m/s 753 mmHg 74%
    08:00 +11°C° 0 mm 3 m/s 753 mmHg 70%
    09:00 +12°C° 0 mm 3 m/s 753 mmHg 67%
    10:00 +14°C° 0 mm 4 m/s 753 mmHg 63%
    11:00 +17°C° 0 mm 4 m/s 752 mmHg 60%
    12:00 +17°C° 0 mm 5 m/s 752 mmHg 56%
    13:00 +19°C° 0 mm 5 m/s 751 mmHg 55%
    14:00 +20°C° 0 mm 5 m/s 751 mmHg 54%
    15:00 +20°C° 0 mm 6 m/s 750 mmHg 52%
    16:00 +20°C° 0 mm 5 m/s 750 mmHg 56%
    17:00 +19°C° 0 mm 4 m/s 750 mmHg 60%
    18:00 +18°C° 0 mm 3 m/s 749 mmHg 64%
    19:00 +17°C° 0 mm 3 m/s 750 mmHg 69%
    20:00 +16°C° 0 mm 3 m/s 750 mmHg 73%
    21:00 +14°C° 0 mm 3 m/s 750 mmHg 77%
    22:00 +14°C° 0 mm 3 m/s 750 mmHg 79%
    23:00 +13°C° 0 mm 3 m/s 750 mmHg 80%

    29 Septembre, Samedi

    Heure Température Précipitation Vent Pression Humidité
    00:00 +13°C° 0 mm 3 m/s 750 mmHg 82%
    01:00 +14°C° 0 mm 2 m/s 750 mmHg 84%
    02:00 +13°C° 0 mm 2 m/s 750 mmHg 85%
    03:00 +13°C° 0 mm 2 m/s 750 mmHg 87%
    04:00 +13°C° 0 mm 2 m/s 750 mmHg 88%
    05:00 +12°C° 0 mm 1 m/s 750 mmHg 90%
    06:00 +12°C° 0 mm 1 m/s 750 mmHg 91%
    07:00 +13°C° 0 mm 1 m/s 750 mmHg 86%
    08:00 +15°C° 0 mm 1 m/s 750 mmHg 81%
    09:00 +16°C° 0 mm 1 m/s 750 mmHg 76%
    10:00 +18°C° 0 mm 1 m/s 750 mmHg 71%
    11:00 +20°C° 0 mm 1 m/s 750 mmHg 65%
    12:00 +21°C° 0 mm 1 m/s 750 mmHg 60%
    13:00 +21°C° 0 mm 1 m/s 750 mmHg 59%
    14:00 +22°C° 0 mm 1 m/s 749 mmHg 57%
    15:00 +22°C° 0 mm 1 m/s 749 mmHg 56%
    16:00 +20°C° 0.1 mm 2 m/s 749 mmHg 60%
    17:00 +19°C° 0.1 mm 3 m/s 749 mmHg 64%
    18:00 +18°C° 0.1 mm 4 m/s 749 mmHg 68%
    19:00 +17°C° 0 mm 4 m/s 749 mmHg 71%
    20:00 +15°C° 0 mm 4 m/s 750 mmHg 74%
    21:00 +14°C° 0 mm 4 m/s 750 mmHg 76%
    22:00 +13°C° 0 mm 4 m/s 750 mmHg 78%
    23:00 +13°C° 0 mm 4 m/s 750 mmHg 79%
    Voir plus